Location: Daouli
(14.8671°N, 3.2030°W)
Time: 02:08:16
(UTC+00:00)

ASC 2 Rocket - Pass Details

Date: 29 October 2020
Orbit: 555 x 2345 km, 24.0° (Epoch: 02 December)

Event Time Altitude Azimuth Distance (km) Brightness Sun altitude
Rises 18:56:51 0° 296° (WNW) 2,736 7.3 -17.8°
Reaches altitude 10° 18:59:00 10° 304° (WNW) 1,898 6.2 -18.3°
Maximum altitude 19:03:05 43° 17° (NNE) 931 3.7 -19.3°
Enters shadow 19:04:14 37° 53° (NE) 1,088 3.8 -19.5°
